SL-8 R/B

Satellite information

Favourite Embed

Satellite Type and Status

ROCKET BODYIN ORBIT

Key statistics

Satellite SL-8 R/B at a glance.

Uptime

17828

Days in orbit

Revolutions

≈ 13.8

Per day

Orbit

LEO

Low Earth Orbit

Inclination

83.0

Latest

Satellite identification and parameters

Extended collection of information and parameters for SL-8 R/B.

Object identification

Identified? True

Debris? False

Object name: SL-8 R/B

International designator: 1977-013B

Object number (NORAD): 9848

Object ID (CCSDS): 9848

Country: COMMONWEALTH OF INDEPENDENT STATES (CIS)

Current information (Y/N): Y

RCS size: LARGE

Orbital parameters

Period: 104.671 minutes

Inclination: 82.951 deg

SMA: 7357.159 km

Apoapsis: 990.475 km

Periapsis: 967.573 km

RAAN: 209.0236 deg

Eccentricy: 0.00155643

Argument of periapsis: 220.4029 deg

Mean anomaly: 199.8317 deg

Mean motion: 13.75743787 rev/day

Mean motion (dot): 0.00000052 rev/day2

B* drag term: 0.000038511196 1/REarth

Two-line elements (TLE)

Creation date: Dec. 14, 2025, 3:07 a.m.

Reference frame: TEME

Reference center: EARTH

Epoch: Dec. 13, 2025, 4:36 p.m. UTC

TLE line 0: 0 SL-8 R/B

TLE line 1: 1 09848U 77013B 25347.69206877 .00000052 00000-0 38511-4 0 9992

TLE line 2: 2 09848 82.9510 209.0236 0015564 220.4029 199.8317 13.75743787449443

Live tracking on map

Real-time ground track for satellite SL-8 R/B.

In-orbit conjunctions

A list of the most updated potential collisions computed for object SL-8 R/B.

Target Orbit TCA Probability of collision Miss distance Type
FENGYUN 1C DEB SSO 2025-07-23 00:26:43 0.0001401271 720.0 (m) DEBRIS
FENGYUN 1C DEB SSO 2024-11-30 02:23:12 0.0001321376 644.0 (m) DEBRIS
SSU 1 LEO 2024-11-08 04:52:14 0.0001309876 834.0 (m) PAYLOAD

Associated space launch

Navigation satellite providing location information for the Tsiklon-B navigation system

SL-8 R/B was lifted into orbit during the mission ‘Kosmos-3M | Parus 8’, on board a Kosmos-3M space rocket.

The launch took place on Feb. 21, 1977, 5:20 p.m. from 132/1 (132L).

For more information about the launch, click the button.

Launch to space Kosmos-3M | Parus 8
Kosmos-3M | Parus 8

Agency: N/A

Status: Launch Successful

Launch date: Feb. 21, 1977, 5:20 p.m. UTC

Rocket: Kosmos-3M

Launch pad: 132/1 (132L)

Location: Plesetsk Cosmodrome, Russian Federation

...

Latest news about this satellite

There are no fresh news available about this satellite. Check back as we update our databases every day.


Newsletter sign-up

Weekly statistics, charts and insights to help you stay on top of the space industry.